Location: Fauquembergues
(50.6005°N, 2.0987°E)
Time: 20:34:04
(UTC+00:00)

Cosmos 1500 - Pass Details

Date: 14 July 2020
Orbit: 498 x 520 km, 82.5° (Epoch: 14 August)

Event Time Altitude Azimuth Distance (km) Brightness Sun altitude
Exits shadow 02:33:27 13° 233° (SW) 1,534 5.0 -10.0°
Maximum altitude 02:36:12 28° 289° (WNW) 977 4.4 -9.8°
Drops below altitude 10° 02:39:33 10° 350° (N) 1,737 6.5 -9.4°
Sets 02:41:53 0° 2° (N) 2,623 7.8 -9.2°
